NCEI - Coasts & Oceans THREDDS Server Catalog https://www.ncei.noaa.gov/thredds-ocean/catalog/ndbc/oceansites/DATA/T0N140W/catalog.html


Dataset Size Last Modified
     Folder  T0N140W   --
         OS_T0N140W_PM984A-20110902_R_POS.nc 129.8 Kbytes 2014-05-15T20:42:58Z
         OS_T0N140W_PM943B-20110422_R_POS.nc 78.45 Kbytes 2014-05-15T20:42:58Z
         OS_T0N140W_PM943A-20101126_R_POS.nc 86.77 Kbytes 2014-05-15T20:42:57Z
         OS_T0N140W_PM843B-20100410_R_POS.nc 59.15 Kbytes 2014-05-15T20:42:57Z
         OS_T0N140W_PM843A-20090904_R_POS.nc 52.06 Kbytes 2014-05-15T20:42:57Z
         OS_T0N140W_PM743B-20081026_R_POS.nc 56.83 Kbytes 2014-05-15T20:42:56Z
         OS_T0N140W_PM743A-20080510_R_POS.nc 30.59 Kbytes 2014-05-15T20:42:52Z
         OS_T0N140W_PM683B-20070930_R_POS.nc 75.18 Kbytes 2014-05-15T20:42:52Z
         OS_T0N140W_PM683A-20070531_R_POS.nc 41.74 Kbytes 2014-05-15T20:42:52Z
         OS_T0N140W_PM625A-20060914_R_POS.nc 44.02 Kbytes 2014-05-15T20:42:52Z
         OS_T0N140W_PM575A-20060117_R_POS.nc 73.78 Kbytes 2014-05-15T20:42:51Z
         OS_T0N140W_DM370A-20200321_R_WIND_10min.nc 2.101 Mbytes 2021-09-07T02:08:51Z
         OS_T0N140W_DM370A-20200321_R_TEMP_10min.nc 5.238 Mbytes 2021-09-07T02:08:51Z
         OS_T0N140W_DM370A-20200321_R_SST_10min.nc 1.051 Mbytes 2021-09-07T02:08:51Z
         OS_T0N140W_DM370A-20200321_R_SALT_hourly.nc 5.442 Mbytes 2021-09-07T02:08:51Z
         OS_T0N140W_DM370A-20200321_R_RH_10min.nc 1.052 Mbytes 2021-09-07T02:08:51Z
         OS_T0N140W_DM370A-20200321_R_RAIN_10min.nc 1.047 Mbytes 2021-03-31T02:06:33Z
         OS_T0N140W_DM370A-20200321_R_RAD_2min.nc 5.238 Mbytes 2021-09-07T02:08:51Z
         OS_T0N140W_DM370A-20200321_R_PRES_10min.nc 1.227 Mbytes 2021-09-07T02:08:51Z
         OS_T0N140W_DM370A-20200321_R_POS.nc 143.3 Kbytes 2021-09-07T02:08:51Z
         OS_T0N140W_DM370A-20200321_R_MET_10min.nc 3.360 Mbytes 2021-09-07T02:08:51Z
         OS_T0N140W_DM370A-20200321_R_LWR_2min.nc 4.722 Mbytes 2021-09-07T02:08:51Z
         OS_T0N140W_DM370A-20200321_R_CURR_hourly.nc 1.506 Mbytes 2021-09-07T02:08:51Z
         OS_T0N140W_DM370A-20200321_R_BARO_hourly.nc 179.5 Kbytes 2021-09-07T02:08:51Z
         OS_T0N140W_DM370A-20200321_R_AIRT_10min.nc 1.052 Mbytes 2021-09-07T02:08:51Z
         OS_T0N140W_DM343A-20191010_R_WIND_10min.nc 941.6 Kbytes 2020-03-24T02:04:01Z
         OS_T0N140W_DM343A-20191010_R_TEMP_10min.nc 2.339 Mbytes 2020-03-24T02:04:01Z
         OS_T0N140W_DM343A-20191010_R_SST_10min.nc 472.0 Kbytes 2020-03-24T02:04:01Z
         OS_T0N140W_DM343A-20191010_R_SALT_hourly.nc 2.434 Mbytes 2020-03-24T02:04:01Z
         OS_T0N140W_DM343A-20191010_R_SALT_10min.nc 312.5 Kbytes 2019-10-31T02:02:46Z
         OS_T0N140W_DM343A-20191010_R_RH_10min.nc 472.3 Kbytes 2020-03-24T02:04:01Z
         OS_T0N140W_DM343A-20191010_R_RAIN_10min.nc 467.1 Kbytes 2020-03-22T02:05:16Z
         OS_T0N140W_DM343A-20191010_R_RAD_2min.nc 2.335 Mbytes 2020-03-24T02:04:01Z
         OS_T0N140W_DM343A-20191010_R_PRES_10min.nc 565.2 Kbytes 2020-03-24T02:04:01Z
         OS_T0N140W_DM343A-20191010_R_POS.nc 66.08 Kbytes 2020-03-24T02:04:01Z
         OS_T0N140W_DM343A-20191010_R_MET_10min.nc 1.504 Mbytes 2020-03-24T02:04:01Z
         OS_T0N140W_DM343A-20191010_R_LWR_2min.nc 2.335 Mbytes 2020-03-24T02:04:01Z
         OS_T0N140W_DM343A-20191010_R_CURR_hourly.nc 687.4 Kbytes 2020-03-24T02:04:01Z
         OS_T0N140W_DM343A-20191010_R_BARO_hourly.nc 82.95 Kbytes 2020-03-24T02:04:01Z
         OS_T0N140W_DM343A-20191010_R_AIRT_10min.nc 472.3 Kbytes 2020-03-24T02:04:01Z
         OS_T0N140W_DM316A-20180920_R_WIND_10min.nc 2.183 Mbytes 2019-10-16T02:03:53Z
         OS_T0N140W_DM316A-20180920_R_TEMP_10min.nc 5.443 Mbytes 2019-10-16T02:03:53Z
         OS_T0N140W_DM316A-20180920_R_SST_10min.nc 1.092 Mbytes 2019-10-16T02:03:52Z
         OS_T0N140W_DM316A-20180920_R_SALT_10min.nc 5.660 Mbytes 2019-10-16T02:03:52Z
         OS_T0N140W_DM316A-20180920_R_RH_10min.nc 1.093 Mbytes 2019-10-16T02:03:52Z
         OS_T0N140W_DM316A-20180920_R_RAIN_10min.nc 1.075 Mbytes 2019-10-12T02:06:31Z
         OS_T0N140W_DM316A-20180920_R_RAD_2min.nc 5.443 Mbytes 2019-10-16T02:03:52Z
         OS_T0N140W_DM316A-20180920_R_PRES_10min.nc 1.305 Mbytes 2019-10-16T02:03:52Z
         OS_T0N140W_DM316A-20180920_R_POS.nc 148.8 Kbytes 2019-10-16T02:03:52Z
         OS_T0N140W_DM316A-20180920_R_MET_10min.nc 3.491 Mbytes 2019-10-16T02:03:52Z
         OS_T0N140W_DM316A-20180920_R_LWR_2min.nc 5.443 Mbytes 2019-10-16T02:03:52Z
         OS_T0N140W_DM316A-20180920_R_CURR_hourly.nc 926.4 Kbytes 2019-10-16T02:03:52Z
         OS_T0N140W_DM316A-20180920_R_BARO_hourly.nc 186.3 Kbytes 2019-10-16T02:03:52Z
         OS_T0N140W_DM316A-20180920_R_AIRT_10min.nc 1.093 Mbytes 2019-10-16T02:03:52Z
         OS_T0N140W_DM221A-20170127_R_WIND_10min.nc 3.405 Mbytes 2018-09-25T02:04:57Z
         OS_T0N140W_DM221A-20170127_R_TEMP_10min.nc 8.499 Mbytes 2018-09-25T02:04:57Z
         OS_T0N140W_DM221A-20170127_R_SST_10min.nc 1.704 Mbytes 2018-09-25T02:04:57Z
         OS_T0N140W_DM221A-20170127_R_SALT_10min.nc 8.840 Mbytes 2018-09-25T02:04:57Z
         OS_T0N140W_DM221A-20170127_R_RH_10min.nc 1.704 Mbytes 2018-09-25T02:04:57Z
         OS_T0N140W_DM221A-20170127_R_RAIN_10min.nc 1.197 Mbytes 2018-09-23T02:08:34Z
         OS_T0N140W_DM221A-20170127_R_RAD_2min.nc 8.499 Mbytes 2018-09-25T02:04:57Z
         OS_T0N140W_DM221A-20170127_R_PRES_10min.nc 2.008 Mbytes 2018-09-25T02:04:57Z
         OS_T0N140W_DM221A-20170127_R_POS.nc 230.3 Kbytes 2019-09-23T13:49:02Z
         OS_T0N140W_DM221A-20170127_R_MET_10min.nc 5.447 Mbytes 2018-09-25T02:04:56Z
         OS_T0N140W_DM221A-20170127_R_LWR_2min.nc 8.499 Mbytes 2018-09-25T02:04:56Z
         OS_T0N140W_DM221A-20170127_R_CURR_hourly.nc 1.635 Mbytes 2018-09-25T02:04:56Z
         OS_T0N140W_DM221A-20170127_R_BARO_hourly.nc 288.3 Kbytes 2018-09-25T02:04:56Z
         OS_T0N140W_DM221A-20170127_R_AIRT_10min.nc 1.704 Mbytes 2018-09-25T02:04:56Z
         OS_T0N140W_DM166B-20160227_R_WIND_10min.nc 1.805 Mbytes 2017-02-03T01:54:43Z
         OS_T0N140W_DM166B-20160227_R_TEMP_10min.nc 4.694 Mbytes 2017-02-03T01:54:43Z
         OS_T0N140W_DM166B-20160227_R_SST_10min.nc 942.8 Kbytes 2017-02-03T01:54:43Z
         OS_T0N140W_DM166B-20160227_R_SALT_10min.nc 4.882 Mbytes 2017-02-03T01:54:43Z
         OS_T0N140W_DM166B-20160227_R_RH_10min.nc 903.8 Kbytes 2017-02-03T01:54:42Z
         OS_T0N140W_DM166B-20160227_R_RAIN_10min.nc 863.5 Kbytes 2017-01-28T01:56:30Z
         OS_T0N140W_DM166B-20160227_R_RAD_2min.nc 4.155 Mbytes 2017-02-03T01:54:42Z
         OS_T0N140W_DM166B-20160227_R_PRES_10min.nc 726.7 Kbytes 2017-02-03T01:54:42Z
         OS_T0N140W_DM166B-20160227_R_POS.nc 128.8 Kbytes 2018-12-19T15:16:32Z
         OS_T0N140W_DM166B-20160227_R_MET_10min.nc 2.886 Mbytes 2017-02-03T01:54:42Z
         OS_T0N140W_DM166B-20160227_R_LWR_2min.nc 4.155 Mbytes 2017-02-03T01:54:42Z
         OS_T0N140W_DM166B-20160227_R_CURR_hourly.nc 741.5 Kbytes 2017-02-03T01:54:41Z
         OS_T0N140W_DM166B-20160227_R_BARO_hourly.nc 161.5 Kbytes 2017-02-03T01:54:41Z
         OS_T0N140W_DM166B-20160227_R_AIRT_10min.nc 903.8 Kbytes 2017-02-03T01:54:41Z
         OS_T0N140W_DM124A-20150323_R_WIND_10min.nc 1.215 Mbytes 2015-11-01T01:51:40Z
         OS_T0N140W_DM124A-20150323_R_TEMP_10min.nc 3.028 Mbytes 2015-11-01T01:51:38Z
         OS_T0N140W_DM124A-20150323_R_SST_10min.nc 609.6 Kbytes 2015-11-01T01:51:39Z
         OS_T0N140W_DM124A-20150323_R_SALT_10min.nc 3.148 Mbytes 2015-11-01T01:51:40Z
         OS_T0N140W_DM124A-20150323_R_RH_10min.nc 608.8 Kbytes 2015-11-01T01:51:38Z
         OS_T0N140W_DM124A-20150323_R_RAD_2min.nc 1.718 Mbytes 2015-11-01T01:51:39Z
         OS_T0N140W_DM124A-20150323_R_PRES_10min.nc 851.0 Kbytes 2015-11-01T01:51:39Z
         OS_T0N140W_DM124A-20150323_R_POS.nc 76.33 Kbytes 2019-04-05T14:09:14Z
         OS_T0N140W_DM124A-20150323_R_MET_10min.nc 1.942 Mbytes 2015-11-01T01:51:39Z
         OS_T0N140W_DM124A-20150323_R_LWR_2min.nc 1.718 Mbytes 2015-11-01T01:51:39Z
         OS_T0N140W_DM124A-20150323_R_CURR_hourly.nc 798.7 Kbytes 2015-11-01T01:51:39Z
         OS_T0N140W_DM124A-20150323_R_BARO_hourly.nc 105.8 Kbytes 2015-11-01T01:51:39Z
         OS_T0N140W_DM124A-20150323_R_AIRT_10min.nc 608.8 Kbytes 2015-11-01T01:51:39Z
         OS_T0N140W_DM092A-20140916_R_WIND_10min.nc 1.073 Mbytes 2015-06-29T13:59:48Z
         OS_T0N140W_DM092A-20140916_R_TEMP_10min.nc 2.660 Mbytes 2015-06-29T13:59:48Z
         OS_T0N140W_DM092A-20140916_R_SST_10min.nc 536.1 Kbytes 2015-06-29T13:59:48Z
         OS_T0N140W_DM092A-20140916_R_SALT_10min.nc 2.731 Mbytes 2015-06-29T13:59:48Z
         OS_T0N140W_DM092A-20140916_R_RH_10min.nc 538.0 Kbytes 2015-06-29T13:59:48Z
         OS_T0N140W_DM092A-20140916_R_RAD_2min.nc 2.669 Mbytes 2015-06-29T13:59:48Z
         OS_T0N140W_DM092A-20140916_R_PRES_10min.nc 623.3 Kbytes 2015-06-29T13:59:48Z
         OS_T0N140W_DM092A-20140916_R_POS.nc 74.95 Kbytes 2019-03-18T13:52:09Z
         OS_T0N140W_DM092A-20140916_R_MET_10min.nc 1.715 Mbytes 2015-06-29T13:59:47Z
         OS_T0N140W_DM092A-20140916_R_LWR_2min.nc 2.669 Mbytes 2015-06-29T13:59:48Z
         OS_T0N140W_DM092A-20140916_R_CURR_hourly.nc 629.3 Kbytes 2015-06-29T13:59:48Z
         OS_T0N140W_DM092A-20140916_R_BARO_hourly.nc 93.88 Kbytes 2015-06-29T13:59:48Z
         OS_T0N140W_DM092A-20140916_R_AIRT_10min.nc 538.1 Kbytes 2015-06-29T13:59:48Z

NCEI - Coasts & Oceans THREDDS Server at NOAA - National Centers for Environmental Information see Info
THREDDS Data Server [Version 4.6.11 - 2017-12-04T16:22:46-0700] Documentation